Hourly Data Report for May 16, 2016

All times are specified in Local Standard Time (LST). Add 1 hour to adjust for Daylight Saving Time where and when it is observed.

LA RONGE RCS
SASKATCHEWAN

55°08'47.020" N
105°16'13.030" W
378.60 m
4064149
71586
XOX

Download Data

Hourly Data (May 2016)
Hourly Data Report for May 16, 2016
TIME Temp Definition
°C
Dew Point Definition
°C
Rel Hum Definition
%
Wind Dir Definition
10's deg

Wind Spd Definition
km/h
Visibility Definition
km
Stn Press Definition
kPa
Hmdx Definition


Wind Chill Definition


Weather Definition


00:00 7.2 2.1 70 15 3   97.02     LegendNANA
01:00 5.8 1.8 75   0   97.06     LegendNANA
02:00 5.6 1.4 75 14 2   97.08     LegendNANA
03:00 7.5 2.9 73 17 10   97.08     LegendNANA
04:00 6.1 2.2 76 19 7   97.08     LegendNANA
05:00 5.0 1.9 80 20 6   97.12     LegendNANA
06:00 6.8 2.7 75 19 4   97.14     LegendNANA
07:00 9.1 3.9 70 16 5   97.17     LegendNANA
08:00 12.2 3.8 56 17 5   97.21     LegendNANA
09:00 15.7 4.2 46 16 5   97.22     LegendNANA
10:00 18.4 3.4 37 16 10   97.22     LegendNANA
11:00 21.3 1.8 28 18 10   97.20     LegendNANA
12:00 23.3 -0.6 20 22 13   97.18     LegendNANA
13:00 24.3 -2.0 17 25 11   97.16     LegendNANA
14:00 24.4 -3.5 15 23 11   97.12     LegendNANA
15:00 25.2 -3.1 15 25 12   97.12     LegendNANA
16:00 25.4 -2.0 16 23 11   97.11     LegendNANA
17:00 24.0 -2.6 17 18 9   97.08     LegendNANA
18:00 25.1 -3.4 15 24 12   97.05     LegendNANA
19:00 24.4 -2.7 16 22 11   97.04     LegendNANA
20:00 22.6 -1.9 19 22 6   97.05     LegendNANA
21:00 19.5 -0.7 26 19 8   97.08     LegendNANA
22:00 18.2 -0.3 29 19 9   97.12     LegendNANA
23:00 17.0 -0.2 31 19 11   97.14     LegendNANA

Notes on Data Quality.

Legend

  • E = Estimated
  • M = Missing
  • NA = Not Available
Date modified: